(89) Julia
ephemeris date magn radius delta ra dec elong phase
Today30 May 202510.52.264 AU1.752 AU21h43m-19°40'106.8°25.4°
Opposition10 Aug 20258.52.153 AU1.141 AU21h20m-11°39'176.1°1.8°
(89) Julia - 2025-05-30
astro.vanbuitenen.nl


 
-1 year
-1 month
-1 day
Now
+1 day
+1 month
+1 year

The interactive orbit chart above shows the body's path through the solar system and its position at the given date. Green and blue lines are shown perpendicular to the ecliptic plane: Green if the path is above the ecliptic plane, blue if it is below. (Left-click and drag to rotate the view; Right-click and drag to move the view; Use scroll wheel to zoom in our out.)

The orbital elements of Julia are:

            e (Eccentricity)                : 0.1838954
            a (Semimajor axis)              : 2.5512714
            i (Inclination)                 : 16.12261
            Ω (Longitude of ascending node) : 311.52003
            ω (Argument of perihelion)      : 45.17067
            M (Mean anomaly)                : 310.02214
            Epoch                           : 2025 May 05

            L (Longitude of perihelion)     : 355.54140
            B (Latitude of perihelion)      : 11.35826
            P (Orbital period in years)     : 4.08            
        

The light curve chart below shows the estimated development of the minor planet's magnitude.


The all-sky chart below shows the path of the minor planet over the same period as the light curve. The current position is marked yellow.





The following chart shows the path of the minor planet in the next few days. The field of view is optimized for (~10x50) binoculars and finderscopes. A more printer-friendly version of the same chart can be found below.




Ephemerides:
Date       Time       RA (2000)    DEC (2000)    delta   radius  elong  phase   PA    magn
2025-05-30 00:00 UT   21 43 31.4   -19 40 46     1.752    2.264  106.8   25.4   252   10.5 
2025-05-30 04:28 UT   21 43 39.5   -19 39 18     1.750    2.264  107.0   25.4   252   10.5 
2025-05-31 00:00 UT   21 44 14.1   -19 32 56     1.739    2.262  107.6   25.3   252   10.5 
2025-06-01 00:00 UT   21 44 55.4   -19 25 08     1.726    2.261  108.4   25.2   252   10.5 
2025-06-02 00:00 UT   21 45 35.2   -19 17 21     1.713    2.259  109.1   25.1   252   10.5 
2025-06-03 00:00 UT   21 46 13.5   -19 09 36     1.701    2.257  109.9   25.0   252   10.4 
2025-06-04 00:00 UT   21 46 50.3   -19 01 52     1.688    2.255  110.7   24.9   253   10.4 
2025-06-05 00:00 UT   21 47 25.6   -18 54 10     1.675    2.254  111.5   24.8   253   10.4 
2025-06-06 00:00 UT   21 47 59.4   -18 46 29     1.663    2.252  112.2   24.6   253   10.4 
2025-06-07 00:00 UT   21 48 31.6   -18 38 50     1.650    2.250  113.0   24.5   253   10.4 
2025-06-08 00:00 UT   21 49 02.2   -18 31 13     1.638    2.248  113.8   24.4   253   10.3 
2025-06-09 00:00 UT   21 49 31.2   -18 23 37     1.625    2.247  114.6   24.2   253   10.3 
2025-06-10 00:00 UT   21 49 58.6   -18 16 03     1.613    2.245  115.5   24.1   253   10.3 
2025-06-11 00:00 UT   21 50 24.4   -18 08 31     1.601    2.243  116.3   23.9   253   10.3 
2025-06-12 00:00 UT   21 50 48.5   -18 01 01     1.589    2.242  117.1   23.8   253   10.2 
2025-06-13 00:00 UT   21 51 10.9   -17 53 33     1.577    2.240  117.9   23.6   253   10.2 
2025-06-14 00:00 UT   21 51 31.6   -17 46 07     1.565    2.238  118.8   23.4   253   10.2 
2025-06-15 00:00 UT   21 51 50.6   -17 38 42     1.553    2.237  119.6   23.3   253   10.2 
2025-06-16 00:00 UT   21 52 07.8   -17 31 20     1.541    2.235  120.4   23.1   253   10.2 
2025-06-17 00:00 UT   21 52 23.3   -17 23 60     1.530    2.233  121.3   22.9   253   10.1 
2025-06-18 00:00 UT   21 52 36.9   -17 16 42     1.518    2.232  122.2   22.7   253   10.1 
2025-06-19 00:00 UT   21 52 48.8   -17 09 26     1.507    2.230  123.0   22.5   253   10.1 
2025-06-20 00:00 UT   21 52 58.8   -17 02 13     1.496    2.228  123.9   22.2   253   10.1 
2025-06-21 00:00 UT   21 53 06.9   -16 55 02     1.484    2.227  124.8   22.0   253   10.0 
2025-06-22 00:00 UT   21 53 13.1   -16 47 53     1.473    2.225  125.7   21.8   253   10.0 
2025-06-23 00:00 UT   21 53 17.5   -16 40 46     1.462    2.223  126.6   21.5   253   10.0 
2025-06-24 00:00 UT   21 53 19.9   -16 33 42     1.452    2.222  127.5   21.3   253   10.0 
2025-06-25 00:00 UT   21 53 20.4   -16 26 41     1.441    2.220  128.4   21.0   253    9.9 
2025-06-26 00:00 UT   21 53 18.9   -16 19 41     1.430    2.219  129.3   20.8   253    9.9 
2025-06-27 00:00 UT   21 53 15.5   -16 12 45     1.420    2.217  130.3   20.5   253    9.9 
2025-06-28 00:00 UT   21 53 10.1   -16 05 50     1.409    2.215  131.2   20.2   253    9.8 
2025-06-29 00:00 UT   21 53 02.7   -15 58 58     1.399    2.214  132.2   19.9   253    9.8 


    Terminology:
            
    delta:  distance between minor planet and earth in AU
    radius: distance between minor planet and sun in AU
    magn:   magnitude (brightness) estimate    
    ra:     right ascension in hours (24h = 360deg)
    dec:    declination in degrees
    elong:  elongation in degrees (angle sun-earth-minor planet)    
    phase:  phase angle in degrees (angle sun-minor planet-earth)        
    AU:     Astronomical Unit (mean distance between earth and sun: 149597870.7 km
    

Orbital elements provided by the MPC (Minor Planet Center).
Calculations by a modified version of AAPlus, a C# implementation of the AA+ project by PJ Naughter from the algorithms presented in the book "Astronomical Algorithms" by Jean Meeus.
NGC2000 dso catalog and star labels from VizieR as provided by the Strasbourg astronomical Data Center.
Tycho2 catalog from the ESO archive.